This is the latest recevied weather packets stored in our database for station/object SP7QPD-1. If no packets are shown the sender has not sent any weather packets the latest 10 day(s).
| Time | Temp. | Humidity | Pressure | Rain* | Wind** | Luminosity | Snow |
|---|---|---|---|---|---|---|---|
| 1777643547 | 21.11° C | 40% | 1023.3 hPa | 0 mm | - | - | - |
| 1777642347 | 21.11° C | 40% | 1023.6 hPa | 0 mm | - | - | - |
| 1777641747 | 20.56° C | 40% | 1023.8 hPa | 0 mm | - | - | - |
| 1777641147 | 20.56° C | 41% | 1023.8 hPa | 0 mm | - | - | - |
| 1777640547 | 20.56° C | 41% | 1023.9 hPa | 0 mm | - | - | - |
| 1777639947 | 20° C | 42% | 1023.9 hPa | 0 mm | - | - | - |
| 1777638746 | 19.44° C | 44% | 1024.2 hPa | 0 mm | - | - | - |
| 1777638146 | 19.44° C | 43% | 1024.3 hPa | 0 mm | - | - | - |
| 1777636946 | 19.44° C | 43% | 1024.3 hPa | 0 mm | - | - | - |
| 1777636346 | 19.44° C | 43% | 1024.5 hPa | 0 mm | - | - | - |
| 1777635746 | 18.89° C | 43% | 1024.3 hPa | 0 mm | - | - | - |
| 1777635146 | 18.89° C | 44% | 1024.7 hPa | 0 mm | - | - | - |
| 1777634546 | 18.89° C | 45% | 1024.7 hPa | 0 mm | - | - | - |
| 1777633946 | 18.89° C | 44% | 1024.8 hPa | 0 mm | - | - | - |
| 1777633346 | 18.89° C | 45% | 1024.7 hPa | 0 mm | - | - | - |
| 1777632746 | 18.33° C | 45% | 1025.7 hPa | 0 mm | - | - | - |
| 1777632145 | 18.33° C | 44% | 1025.7 hPa | 0 mm | - | - | - |
| 1777631545 | 18.33° C | 46% | 1025.8 hPa | 0 mm | - | - | - |
| 1777624856 | 16.67° C | 45% | 1025.5 hPa | 0 mm | - | - | - |
| 1777624256 | 16.67° C | 45% | 1025.2 hPa | 0 mm | - | - | - |
| 1777623656 | 16.67° C | 46% | 1025.2 hPa | 0 mm | - | - | - |
| 1777623056 | 16.11° C | 46% | 1025.3 hPa | 0 mm | - | - | - |
| 1777622456 | 15.56° C | 47% | 1025.3 hPa | 0 mm | - | - | - |
| 1777621856 | 15.56° C | 49% | 1025.5 hPa | 0 mm | - | - | - |
| 1777621256 | 14.44° C | 50% | 1025.5 hPa | 0 mm | - | - | - |
* Rain latest hour (hover to see other rain measurements)
** Current wind speed in m/s (hover to see current wind gust speed)